Terminal Aerodrome Forecast
Issued by NWS Wilmington, OH

Current Version | Previous Version | Graphics & Text | Print | Product List | Glossary On
Versions: 1 2 3 4 5 6 7 8 9 10 11 12 13 14
000
FTUS41 KILN 251700 RRA
TAFCMH
TAF
KCMH 251746Z 2518/2618 24015KT P6SM OVC030
     FM260400 18006KT P6SM SKC
     FM261600 21010G22KT P6SM SCT200=

USA.gov is the U.S. government's official web portal to all federal, state and local government web resources and services.